Weather History for KSTS - March, 2012

Change the Weather History Date:

Saturday, March 31, 2012

  Actual Average Record
Temperature  
Mean Temperature 51 °F 54 °F  
Max Temperature 57 °F 66 °F 84 °F (2011)
Min Temperature 45 °F 42 °F 30 °F (2008)
Degree Days  
Heating Degree Days 14    
Month to date heating degree days 433  
Since 1 July heating degree days 2509  
Cooling Degree Days 0    
Month to date cooling degree days 0  
Year to date cooling degree days 0  
Growing Degree Days 2 (Base 50)    
Moisture  
Dew Point 47 °F    
Average Humidity 72    
Maximum Humidity 93    
Minimum Humidity 51    
Precipitation  
Precipitation 0.44 in 0.14 in 0.96 in (2013)
Month to date precipitation 7.67 4.98  
Year to date precipitation 16.52 18.43  
Since 1 July precipitation 20.98  
Sea Level Pressure  
Sea Level Pressure 29.79 in    
Wind  
Wind Speed 9 mph (SSW)    
Max Wind Speed 25 mph    
Max Gust Speed 33 mph    
Visibility 8 miles    
Events Rain    
T = Trace of Precipitation, MM = Missing Value Source: NWS Daily Summary

Daily Weather History Graph

Daily Weather History Graph

Search for Another Location

Airport or City:

Trip Planner

Search our weather history database for the weather conditions in past years. The results will help you decide how hot, cold, wet, or windy it might be!

Date:

Astronomy

Mar. 31, 2012 Rise Set
Actual Time 6:56 AM PDT 7:34 PM PDT
Civil Twilight 6:30 AM PDT 8:00 PM PDT
Nautical Twilight 5:58 AM PDT 8:32 PM PDT
Astronomical Twilight 5:26 AM PDT 9:04 PM PDT
Moon 1:12 PM PDT (3/31) 2:52 AM PDT (3/31)
Length of Visible Light 13h 30m
Length of Day
12h 37m
First Quarter, 60% of the Moon is Illuminated
Mar 31
First Quarter
Apr 6
Full
Apr 13
Last Quarter
Apr 21
New
Apr 29
First Quarter

Hourly Weather History & Observations

Time (PDT) Temp. Windchill Dew Point Humidity Pressure Visibility Wind Dir Wind Speed Gust Speed Precip Events Conditions
12:53 AM 57.0 °F - 53.1 °F 87% 29.84 in 10.0 mi SSE 6.9 mph - N/A   Overcast
1:23 AM 55.4 °F - 53.6 °F 94% 29.84 in 10.0 mi South 6.9 mph - N/A   Overcast
1:53 AM 57.0 °F - 52.0 °F 83% 29.81 in 10.0 mi SSE 9.2 mph - N/A   Overcast
2:16 AM 57.2 °F - 51.8 °F 82% 29.82 in 10.0 mi SSE 9.2 mph - N/A   Overcast
2:53 AM 57.0 °F - 53.1 °F 87% 29.79 in 10.0 mi SSE 10.4 mph - N/A   Overcast
3:53 AM 57.0 °F - 52.0 °F 83% 29.76 in 10.0 mi South 10.4 mph - 0.00 in   Overcast
4:53 AM 55.9 °F - 52.0 °F 87% 29.73 in 10.0 mi SSE 8.1 mph - 0.00 in   Overcast
5:53 AM 57.0 °F - 50.0 °F 77% 29.68 in 10.0 mi South 11.5 mph - N/A   Overcast
6:53 AM 55.0 °F - 51.1 °F 86% 29.67 in 4.0 mi South 16.1 mph 25.3 mph 0.01 in Rain Light Rain
7:09 AM 55.4 °F - 51.8 °F 88% 29.68 in 10.0 mi South 18.4 mph 27.6 mph 0.01 in Rain Light Rain
7:29 AM 53.6 °F - 51.8 °F 94% 29.68 in 2.5 mi South 17.3 mph 25.3 mph 0.04 in Rain Rain
7:48 AM 50.0 °F - 46.4 °F 87% 29.72 in 2.5 mi WSW 13.8 mph 21.9 mph 0.19 in Rain Heavy Rain
7:53 AM 50.0 °F - 46.9 °F 89% 29.70 in 2.5 mi West 9.2 mph 20.7 mph 0.21 in Rain Rain
8:03 AM 50.0 °F - 46.4 °F 87% 29.72 in 2.5 mi WSW 9.2 mph 17.3 mph 0.02 in Rain Light Rain
8:15 AM 48.2 °F - 46.4 °F 93% 29.73 in 2.5 mi WSW 12.7 mph 18.4 mph 0.02 in Rain Light Rain
8:53 AM 48.9 °F - 46.0 °F 90% 29.74 in 2.5 mi SW 4.6 mph - 0.04 in Rain Light Rain
9:53 AM 46.9 °F - 42.1 °F 83% 29.76 in 2.5 mi South 3.5 mph - 0.08 in Rain Rain
10:28 AM 46.4 °F 42.9 °F 42.8 °F 87% 29.77 in 5.0 mi SE 6.9 mph - 0.02 in Rain Light Rain
10:53 AM 48.0 °F - 44.1 °F 86% 29.76 in 7.0 mi SE 8.1 mph - 0.02 in   Mostly Cloudy
11:14 AM 48.2 °F - 46.4 °F 93% 29.78 in 7.0 mi SSE 8.1 mph - N/A   Overcast
11:53 AM 51.1 °F - 45.0 °F 80% 29.78 in 7.0 mi South 12.7 mph 20.7 mph N/A   Overcast
12:53 PM 55.0 °F - 44.1 °F 67% 29.77 in 10.0 mi SW 12.7 mph 21.9 mph N/A   Overcast
1:53 PM 55.9 °F - 45.0 °F 67% 29.78 in 10.0 mi SW 13.8 mph 28.8 mph 0.00 in   Overcast
2:53 PM 55.9 °F - 43.0 °F 62% 29.77 in 10.0 mi SW 18.4 mph 27.6 mph 0.00 in   Overcast
3:53 PM 57.0 °F - 39.9 °F 53% 29.79 in 10.0 mi SW 19.6 mph 31.1 mph N/A   Mostly Cloudy
4:53 PM 55.9 °F - 42.1 °F 60% 29.81 in 10.0 mi SW 13.8 mph 24.2 mph N/A   Mostly Cloudy
5:53 PM 54.0 °F - 42.1 °F 64% 29.80 in 10.0 mi SSW 8.1 mph 19.6 mph N/A   Mostly Cloudy
6:53 PM 48.9 °F - 45.0 °F 86% 29.84 in 5.0 mi SW 4.6 mph - 0.05 in Rain Light Rain
7:53 PM 48.0 °F - 45.0 °F 89% 29.86 in 10.0 mi Calm Calm - 0.00 in   Mostly Cloudy
8:53 PM 48.0 °F - 44.1 °F 86% 29.88 in 10.0 mi WSW 4.6 mph - 0.03 in   Scattered Clouds
9:53 PM 46.0 °F 43.9 °F 42.1 °F 86% 29.92 in 10.0 mi West 4.6 mph - 0.00 in   Scattered Clouds
10:53 PM 46.9 °F - 42.1 °F 83% 29.94 in 10.0 mi WSW 5.8 mph - N/A   Overcast
11:53 PM 46.9 °F - 43.0 °F 86% 29.99 in 10.0 mi WNW 6.9 mph - N/A   Overcast